TimeCDT,TemperatureF,Dew PointF,Humidity,Sea Level PressureIn,VisibilityMPH,Wind Direction,Wind SpeedMPH,Gust SpeedMPH,PrecipitationIn,Events,Conditions,WindDirDegrees,DateUTC
12:15 AM,32.4,27.7,83,30.05,10.0,SW,3.5,-,N/A,,Clear,230,2013-10-27 05:15:00
12:35 AM,32.2,27.5,83,30.05,10.0,Calm,Calm,-,N/A,,Clear,0,2013-10-27 05:35:00
12:55 AM,28.9,25.7,88,30.05,10.0,Calm,Calm,-,N/A,,Clear,0,2013-10-27 05:55:00
1:15 AM,29.8,26.4,87,30.04,10.0,Calm,Calm,-,N/A,,Clear,0,2013-10-27 06:15:00
1:35 AM,30.4,26.8,86,30.03,10.0,Calm,Calm,-,N/A,,Clear,0,2013-10-27 06:35:00
1:55 AM,30.0,26.8,88,30.02,10.0,SSW,3.5,-,N/A,,Clear,210,2013-10-27 06:55:00
2:15 AM,29.8,26.1,86,30.02,10.0,SSW,4.6,-,N/A,,Clear,200,2013-10-27 07:15:00
2:35 AM,28.2,25.0,88,30.02,10.0,SSW,5.8,-,N/A,,Clear,210,2013-10-27 07:35:00
2:55 AM,28.2,25.5,90,30.02,10.0,SSW,5.8,-,N/A,,Clear,200,2013-10-27 07:55:00
3:15 AM,28.6,25.3,88,30.02,10.0,SSW,4.6,-,N/A,,Clear,210,2013-10-27 08:15:00
3:35 AM,26.8,25.0,93,30.01,10.0,Calm,Calm,-,N/A,,Clear,0,2013-10-27 08:35:00
3:55 AM,27.7,25.2,90,30.01,10.0,Calm,Calm,-,N/A,,Clear,0,2013-10-27 08:55:00
4:15 AM,27.1,25.2,92,30.02,10.0,South,3.5,-,N/A,,Clear,190,2013-10-27 09:15:00
4:35 AM,26.6,25.2,94,30.02,10.0,South,3.5,-,N/A,,Clear,190,2013-10-27 09:35:00
4:55 AM,25.7,23.9,93,30.02,10.0,South,3.5,-,N/A,,Clear,190,2013-10-27 09:55:00
5:15 AM,24.8,22.8,92,30.02,10.0,South,4.6,-,N/A,,Clear,190,2013-10-27 10:15:00
5:35 AM,26.1,24.4,94,30.02,10.0,South,3.5,-,N/A,,Clear,190,2013-10-27 10:35:00
5:55 AM,25.7,24.3,94,30.02,10.0,SSW,3.5,-,N/A,,Clear,210,2013-10-27 10:55:00
6:15 AM,25.5,24.6,96,30.01,10.0,Calm,Calm,-,N/A,,Clear,0,2013-10-27 11:15:00
6:35 AM,27.0,26.1,96,30.02,10.0,SW,4.6,-,N/A,,Clear,220,2013-10-27 11:35:00
6:55 AM,26.1,25.2,96,30.02,10.0,SSW,3.5,-,N/A,,Clear,210,2013-10-27 11:55:00
7:15 AM,25.7,25.0,97,30.03,10.0,Calm,Calm,-,N/A,,Clear,0,2013-10-27 12:15:00
7:35 AM,24.4,23.9,98,30.03,10.0,SSW,4.6,-,N/A,,Clear,210,2013-10-27 12:35:00
7:55 AM,25.9,25.2,97,30.03,10.0,SSW,5.8,-,N/A,,Clear,210,2013-10-27 12:55:00
8:15 AM,28.8,27.1,94,30.03,10.0,SSW,4.6,-,N/A,,Clear,200,2013-10-27 13:15:00
8:35 AM,31.6,28.6,88,30.02,10.0,SSW,3.5,-,N/A,,Clear,200,2013-10-27 13:35:00
8:55 AM,33.6,30.6,89,30.02,10.0,SSW,5.8,-,N/A,,Clear,210,2013-10-27 13:55:00
9:15 AM,36.5,30.7,80,30.02,10.0,SSW,6.9,-,N/A,,Clear,210,2013-10-27 14:15:00
9:35 AM,39.4,31.5,73,30.02,10.0,SW,8.1,-,N/A,,Clear,230,2013-10-27 14:35:00
9:55 AM,42.1,31.1,65,30.02,10.0,SW,9.2,-,N/A,,Clear,230,2013-10-27 14:55:00
10:15 AM,44.1,30.4,59,30.02,10.0,SW,12.7,-,N/A,,Clear,230,2013-10-27 15:15:00
10:55 AM,45.3,30.4,56,30.01,10.0,WSW,15.0,18.4,N/A,,Clear,240,2013-10-27 15:55:00
11:15 AM,46.8,30.7,54,30.01,10.0,West,12.7,17.3,N/A,,Clear,260,2013-10-27 16:15:00
11:35 AM,47.5,29.3,49,30.00,10.0,WSW,13.8,17.3,N/A,,Clear,240,2013-10-27 16:35:00
11:55 AM,48.0,29.3,48,30.00,10.0,SW,15.0,19.6,N/A,,Clear,230,2013-10-27 16:55:00
12:15 PM,48.6,29.1,47,29.99,10.0,WSW,15.0,18.4,N/A,,Clear,250,2013-10-27 17:15:00
12:35 PM,49.3,28.9,45,29.99,10.0,West,12.7,-,N/A,,Clear,260,2013-10-27 17:35:00
12:55 PM,50.5,30.0,45,29.97,10.0,WSW,17.3,23.0,N/A,,Clear,240,2013-10-27 17:55:00
1:15 PM,50.5,29.7,45,29.97,10.0,WSW,13.8,20.7,N/A,,Clear,250,2013-10-27 18:15:00
1:35 PM,51.4,29.8,44,29.95,10.0,SW,13.8,18.4,N/A,,Clear,230,2013-10-27 18:35:00
1:55 PM,51.8,29.3,42,29.94,10.0,SSW,17.3,23.0,N/A,,Clear,210,2013-10-27 18:55:00
2:55 PM,52.5,28.2,39,29.93,10.0,SW,16.1,24.2,N/A,,Clear,230,2013-10-27 19:55:00
3:15 PM,52.9,28.6,39,29.93,10.0,SSW,13.8,21.9,N/A,,Clear,210,2013-10-27 20:15:00
3:35 PM,52.9,28.2,39,29.92,10.0,SW,17.3,21.9,N/A,,Clear,230,2013-10-27 20:35:00
3:55 PM,52.2,29.1,41,29.92,10.0,SSW,16.1,19.6,N/A,,Clear,210,2013-10-27 20:55:00
4:15 PM,51.8,28.6,41,29.93,10.0,SSW,18.4,23.0,N/A,,Clear,210,2013-10-27 21:15:00
4:35 PM,51.3,28.4,41,29.93,10.0,SW,13.8,-,N/A,,Clear,230,2013-10-27 21:35:00
4:55 PM,50.9,29.5,44,29.93,10.0,SSW,11.5,-,N/A,,Clear,210,2013-10-27 21:55:00
5:15 PM,49.5,29.5,46,29.93,10.0,SW,13.8,-,N/A,,Clear,220,2013-10-27 22:15:00
5:35 PM,48.0,29.3,48,29.93,10.0,SW,11.5,-,N/A,,Clear,220,2013-10-27 22:35:00
5:55 PM,44.6,29.3,55,29.93,10.0,SSW,6.9,-,N/A,,Clear,210,2013-10-27 22:55:00
6:15 PM,41.0,28.2,60,29.93,10.0,South,5.8,-,N/A,,Clear,190,2013-10-27 23:15:00
6:35 PM,41.2,28.4,60,29.94,10.0,South,3.5,-,N/A,,Clear,190,2013-10-27 23:35:00
6:55 PM,39.4,27.7,63,29.94,10.0,Calm,Calm,-,N/A,,Clear,0,2013-10-27 23:55:00
7:15 PM,39.2,28.4,65,29.94,10.0,Calm,Calm,-,N/A,,Clear,0,2013-10-28 00:15:00
7:35 PM,37.6,28.0,68,29.95,10.0,SSW,5.8,-,N/A,,Clear,210,2013-10-28 00:35:00
7:55 PM,36.5,28.0,71,29.95,10.0,South,6.9,-,N/A,,Clear,190,2013-10-28 00:55:00
8:15 PM,36.9,28.6,72,29.96,10.0,SSW,3.5,-,N/A,,Clear,210,2013-10-28 01:15:00
8:35 PM,38.1,29.1,70,29.96,10.0,SSW,4.6,-,N/A,,Clear,210,2013-10-28 01:35:00
8:55 PM,36.1,28.8,75,29.97,10.0,SW,3.5,-,N/A,,Clear,230,2013-10-28 01:55:00
9:15 PM,32.0,28.0,85,29.98,10.0,Calm,Calm,-,N/A,,Clear,0,2013-10-28 02:15:00
9:35 PM,32.5,28.6,85,30.00,10.0,Calm,Calm,-,N/A,,Clear,0,2013-10-28 02:35:00
9:55 PM,35.1,29.1,79,30.02,10.0,Calm,Calm,-,N/A,,Clear,0,2013-10-28 02:55:00
10:15 PM,32.2,28.0,85,30.02,10.0,WSW,3.5,-,N/A,,Clear,240,2013-10-28 03:15:00
10:35 PM,34.5,29.1,81,30.02,10.0,Calm,Calm,-,N/A,,Clear,0,2013-10-28 03:35:00
10:55 PM,32.7,28.4,84,30.03,10.0,Calm,Calm,-,N/A,,Clear,0,2013-10-28 03:55:00
11:15 PM,33.1,28.8,84,30.03,10.0,Calm,Calm,-,N/A,,Clear,0,2013-10-28 04:15:00
11:35 PM,32.4,29.7,90,30.03,10.0,Calm,Calm,-,N/A,,Scattered Clouds,0,2013-10-28 04:35:00
11:55 PM,32.4,28.8,87,30.03,10.0,Calm,Calm,-,N/A,,Mostly Cloudy,0,2013-10-28 04:55:00